Home > Weather > Cuiabá > Past weeks

Flag for Brazil Weather for the Past 2 Weeks in Cuiabá, Mato Grosso, Brazil

Now
57 °F

Clear.


Feels Like: 56 °F
Forecast: 57 / 83 °F
Wind: 7 mph from South

Location: Cuiaba Aeroporto

Current Time: May 1, 2016 at 6:16:59 AM

Latest Report: May 1, 2016 at 5:00 AM


Visibility: 10 mi

Pressure: 30.07 "Hg

Humidity: 77%

Dew Point: 50 °F

Location of CuiabáLocation

Historic Weather in Cuiabá — Graph

°F

Cuiabá Temperature Yesterday

Maximum temperature yesterday: 79 °F (at 2:00 PM)
Minimum temperature yesterday: 59 °F (at 5:00 AM)
Average temperature yesterday: 68 °F

High & Low Weather Summary for the Past Weeks

 TemperatureHumidityPressure
High97 °F (Apr 18, 1:00 PM)94% (Apr 16, 5:00 AM)30.18 "Hg (Apr 16, 5:00 AM)
Low57 °F (Apr 27, 8:00 PM)22% (Apr 18, 3:00 PM)29.71 "Hg (Apr 25, 4:00 PM)
Average78 °F67%29.93 "Hg
* Reported Apr 16 5:00 AM — May 1 5:00 AM, Cuiabá, Weather by CustomWeather, © 2016

Note: Actual official high and low records may vary slightly from our data, if they occured in-between our weather recording intervals... More about our weather records

Advertising

Cuiabá Weather History for the Previous 24 Hours

Scroll right to see more
 ConditionsComfort  
Time TempWeatherWind HumidityBarometerVisibility
5:00 AM
Sun, May 1
57 °FClear.7 mph77%30.07 "Hg10 mi
4:00 AM59 °FClear.7 mph82%30.04 "Hg10 mi
3:00 AM61 °FClear.8 mph83%30.04 "Hg10 mi
2:00 AM61 °FClear.7 mph83%30.07 "Hg10 mi
1:00 AM63 °FClear.7 mph77%30.07 "Hg10 mi
12:00 AM64 °FClear.6 mph73%30.07 "Hg10 mi
11:00 PM
Sat, Apr 30
64 °FClear.6 mph73%30.07 "Hg10 mi
10:00 PM66 °FClear.7 mph68%30.07 "Hg10 mi
9:00 PM70 °FClear.6 mph60%30.04 "Hg10 mi
8:00 PM70 °FClear.6 mph60%30.04 "Hg10 mi
7:00 PM72 °FClear.5 mph57%30.01 "Hg10 mi
6:00 PM72 °FClear.5 mph57%30.01 "Hg10 mi
5:00 PM75 °FSunny.8 mph50%30.01 "Hg10 mi
4:00 PM77 °FSunny.12 mph42%30.01 "Hg10 mi
3:00 PM77 °FSunny.12 mph42%30.01 "Hg10 mi
2:00 PM79 °FSunny.12 mph42%30.04 "Hg10 mi
1:00 PM77 °FSunny.9 mph44%30.04 "Hg10 mi
12:00 PM75 °FSunny.6 mph44%30.07 "Hg10 mi
11:00 AM72 °FSunny.13 mph53%30.12 "Hg10 mi
10:00 AM70 °FSunny.12 mph57%30.12 "Hg10 mi
9:00 AM68 °FSunny.12 mph60%30.12 "Hg10 mi
8:00 AM63 °FSunny.1 mph73%30.12 "Hg10 mi
7:00 AM61 °FSunny.3 mph77%30.12 "Hg10 mi
6:00 AM61 °FSunny.2 mph83%30.09 "Hg10 mi
Weather by CustomWeather, © 2016

See weather overviewHow to use our weather pages